This is the latest recevied weather packets stored in our database for station/object K3HW. If no packets are shown the sender has not sent any weather packets the latest 10 day(s).
| Time | Temp. | Humidity | Pressure | Rain* | Wind** | Luminosity | Snow |
|---|---|---|---|---|---|---|---|
| 1777668740 | 18.33° C | 46% | 1014.6 hPa | 0 mm | - | 192 W/m² | - |
| 1777668437 | 18.33° C | 42% | 1014.7 hPa | 0 mm | - | 147 W/m² | - |
| 1777667829 | 17.78° C | 45% | 1014.6 hPa | 0 mm | - | 82 W/m² | - |
| 1777667527 | 17.78° C | 41% | 1014.6 hPa | 0 mm | - | 320 W/m² | - |
| 1777667224 | 17.78° C | 43% | 1014.7 hPa | 0 mm | - | 42 W/m² | - |
| 1777666921 | 17.78° C | 39% | 1014.7 hPa | 0 mm | - | 195 W/m² | - |
| 1777666618 | 17.78° C | 43% | 1014.6 hPa | 0 mm | - | 49 W/m² | - |
| 1777666011 | 17.78° C | 42% | 1014.8 hPa | 0 mm | - | 306 W/m² | - |
| 1777665406 | 17.78° C | 41% | 1014.8 hPa | 0 mm | - | 48 W/m² | - |
| 1777664190 | 17.78° C | 39% | 1015 hPa | 0 mm | - | 122 W/m² | - |
| 1777663889 | 17.22° C | 40% | 1015 hPa | 0 mm | - | 71 W/m² | - |
| 1777663586 | 17.22° C | 42% | 1015.1 hPa | 0 mm | - | 48 W/m² | - |
| 1777663283 | 17.22° C | 43% | 1015.2 hPa | 0 mm | - | 140 W/m² | - |
| 1777662980 | 17.22° C | 41% | 1015.3 hPa | 0 mm | - | 162 W/m² | - |
| 1777662374 | 17.22° C | 42% | 1015.5 hPa | 0 mm | - | 167 W/m² | - |
| 1777662069 | 17.22° C | 43% | 1015.5 hPa | 0 mm | - | 78 W/m² | - |
| 1777661157 | 16.67° C | 44% | 1015.6 hPa | 0 mm | - | 178 W/m² | - |
| 1777660549 | 16.67° C | 46% | 1015.8 hPa | 0 mm | - | 246 W/m² | - |
| 1777660245 | 16.67° C | 42% | 1015.9 hPa | 0 mm | - | 110 W/m² | - |
| 1777659942 | 16.67° C | 46% | 1015.9 hPa | 0 mm | - | 155 W/m² | - |
| 1777659639 | 16.67° C | 43% | 1015.9 hPa | 0 mm | - | 87 W/m² | - |
| 1777659336 | 16.67° C | 42% | 1016 hPa | 0 mm | - | 57 W/m² | - |
| 1777659033 | 16.11° C | 49% | 1016 hPa | 0 mm | - | 334 W/m² | - |
| 1777656000 | 15.56° C | 46% | 1016 hPa | 0 mm | - | 85 W/m² | - |
| 1777653576 | 15° C | 51% | 1016.7 hPa | 0 mm | - | 128 W/m² | - |
* Rain latest hour (hover to see other rain measurements)
** Current wind speed in m/s (hover to see current wind gust speed)